Location: Avully
(45.9633°N, 6.0228°E)
Time: 03:51:36
(UTC+00:00)

Cosmos 2208 Rocket - Pass Details

Date: 23 May 2024
Orbit: 753 x 803 km, 74.0° (Epoch: 21 June)

Event Time Altitude Azimuth Distance (km) Brightness Sun altitude
Rises 02:56:06 0° 338° (NNW) 3,277 7.6 -9.0°
Reaches altitude 10° 02:58:31 10° 338° (NNW) 2,336 6.8 -8.7°
Maximum altitude 03:03:50 87° 249° (WSW) 776 4.0 -8.0°
Drops below altitude 10° 03:09:02 10° 161° (SSE) 2,288 6.3 -7.3°
Sets 03:11:22 0° 161° (SSE) 3,204 7.0 -7.0°
